Weather in Strakonice

Czech Republic     49°15′21″N   13°54′37″E
temp.,
°C
wind,
m/s
gust,
m/s
humid.,
%
clouds,
%
prec.,
mm/h
press.,
hPa
HPBL,
m
29 november, mon
mon2901:00−5wsw229439 0.0 100018
04:00−5w2196100 0.0 100117
07:00−3wnw379594 0.1 1002288
10:00−1wnw588868 0.1 1004412
13:00+1wnw698036 0.1 1004911
16:00−1wnw7138740 0.0 1006598
19:00−1w7148052 0.0 1009695
22:00−2wnw7148624 0.0 1011590
30 november, tue
tue3001:00−1wnw7128299 0.1 10121047
04:00−1w6158277 0.0 1013737
07:000w71575100 0.0 1011877
10:00+1wsw112072100 0.0 10091291
13:00+1wsw142469100 0.2 10051222
16:00+2w132379100 0.4 10041102
19:00+2w122291100 0.7 10061162
22:00+3w101993100 0.4 10081074
1 december, wed
wed101:00+4w91784100 0.5 1009989
04:00+4w71688100 0.0 1007845
07:00+4wsw81789100 0.1 1005937
10:00+5wsw71688100 0.0 10041075
13:00+6wsw8177856 0.1 10001078
16:00+6wsw81682100 0.1 9981095
19:00+6wsw81687100 0.3 9971253
22:00+6wsw91784100 0.1 9981318
2 december, thu
thu201:00+5w81479100 0.2 9981260
04:00+5w81374100 0.2 998956
07:00+3w71478100 0.2 998721
10:00+3w61082100 0.0 1000998
13:00+3w576898 0.1 10001131
16:00+1w227729 0.0 100132
19:00−1sw238188 0.0 100240
22:00+1wnw598598 0.2 1004713
3 december, fri
fri301:00−1w51178100 0.2 1006477
04:00−1wnw61178100 0.0 1008556
07:00−1w498283 0.1 1010410
10:000w58685 0.0 1010852
13:00+2w57555 0.0 10091043
16:00−1ssw22715 0.0 100923
19:00−3sse2282100 0.0 100740
22:00−3sse2386100 0.0 100559